Location: ?????
(31.8092°N, 35.2590°E)
Time: 18:53:34
(UTC+00:00)

Meteor 1-24 Rocket - Pass Details

Date: 20 June 2021
Orbit: 791 x 927 km, 81.3° (Epoch: 31 July)

Event Time Altitude Azimuth Distance (km) Brightness Sun altitude
Exits shadow 19:09:20 51° 92° (E) 1,007 3.8 -24.0°
Drops below altitude 10° 19:14:31 10° 19° (NNE) 2,411 6.5 -24.6°
Sets 19:17:00 0° 15° (NNE) 3,365 7.4 -24.9°
